This is the latest recevied weather packets stored in our database for station/object EA3CTN-13. If no packets are shown the sender has not sent any weather packets the latest 10 day(s).
| Time | Temp. | Humidity | Pressure | Rain* | Wind** | Luminosity | Snow |
|---|---|---|---|---|---|---|---|
| 1777379005 | 23.89° C | 40% | 1014.2 hPa | - | - | - | - |
| 1777378525 | 23.89° C | 38% | 1014.3 hPa | - | - | - | - |
| 1777378040 | 23.89° C | 38% | 1014.3 hPa | - | - | - | - |
| 1777377565 | 23.33° C | 39% | 1014.4 hPa | - | - | - | - |
| 1777377085 | 23.33° C | 39% | 1014.5 hPa | - | - | - | - |
| 1777376605 | 23.33° C | 39% | 1014.6 hPa | - | - | - | - |
| 1777376125 | 23.33° C | 39% | 1014.7 hPa | - | - | - | - |
| 1777375645 | 23.33° C | 39% | 1014.9 hPa | - | - | - | - |
| 1777375165 | 23.33° C | 39% | 1014.8 hPa | - | - | - | - |
| 1777374685 | 23.33° C | 40% | 1015 hPa | - | - | - | - |
| 1777374205 | 23.33° C | 40% | 1015.1 hPa | - | - | - | - |
| 1777373725 | 23.33° C | 41% | 1015.1 hPa | - | - | - | - |
| 1777373245 | 23.33° C | 38% | 1015.2 hPa | - | - | - | - |
| 1777372765 | 23.33° C | 36% | 1015.3 hPa | - | - | - | - |
| 1777372285 | 23.33° C | 35% | 1015.3 hPa | - | - | - | - |
| 1777371805 | 23.33° C | 35% | 1015.4 hPa | - | - | - | - |
| 1777371325 | 23.33° C | 32% | 1015.4 hPa | - | - | - | - |
| 1777370845 | 23.33° C | 34% | 1015.4 hPa | - | - | - | - |
| 1777370364 | 23.33° C | 34% | 1015.5 hPa | - | - | - | - |
| 1777369885 | 23.33° C | 38% | 1015.5 hPa | - | - | - | - |
| 1777369406 | 23.33° C | 39% | 1015.6 hPa | - | - | - | - |
| 1777368925 | 23.33° C | 39% | 1015.5 hPa | - | - | - | - |
| 1777368445 | 22.78° C | 43% | 1015.4 hPa | - | - | - | - |
| 1777367964 | 22.78° C | 43% | 1015.4 hPa | - | - | - | - |
| 1777367485 | 22.78° C | 43% | 1015.4 hPa | - | - | - | - |
* Rain since midnight (hover to see other rain measurements)
** Current wind speed in m/s (hover to see current wind gust speed)